SIA12 RJAA-KLAX

Flight info

Callsign SIA12
Flight time N/A
Altitude 35000
Route GULBO Y808 NOLAX Y814 AVBET OTR11 LEPKI 40N160E 41N170E 41N180E 41N170W/N0484F370 41N160W 41N150W 40N140W 38N130W/N0483F390 DCT ALLBE DCT PIRAT DCT BURGL IRNMN2
Aircraft B77W/H-SDE1E2E3FGHIJ4J5M1P2RWXYZ/LB1D1

Departure

Time 2026-05-04 11:28
Airport Narita International Airport (RJAA)

Arrival

Time N/A
Airport Los Angeles International Airport (KLAX)
Time Latitude Longitude Altitude Speed Heading
2026-05-04 10:51 35.76243 140.38324 151 ft 0 kts 60°
2026-05-04 11:17 35.76233 140.38301 96 ft 4 kts 70°
2026-05-04 11:19 35.76266 140.38178 150 ft 0 kts 148°
2026-05-04 11:20 35.76265 140.38178 150 ft 0 kts 148°
2026-05-04 11:20 35.76237 140.38200 150 ft 10 kts 150°
2026-05-04 11:20 35.76173 140.38247 151 ft 11 kts 148°
2026-05-04 11:22 35.75697 140.38473 151 ft 11 kts 149°
2026-05-04 11:22 35.75630 140.38521 151 ft 11 kts 149°
2026-05-04 11:23 35.75564 140.38570 151 ft 11 kts 149°
2026-05-04 11:23 35.75498 140.38618 151 ft 11 kts 149°
2026-05-04 11:24 35.75077 140.38792 150 ft 11 kts 149°
2026-05-04 11:25 35.75010 140.38841 151 ft 11 kts 149°
2026-05-04 11:25 35.74943 140.38890 151 ft 11 kts 149°
2026-05-04 11:25 35.74877 140.38938 151 ft 11 kts 149°
2026-05-04 11:26 35.74739 140.39037 151 ft 12 kts 150°
2026-05-04 11:27 35.74508 140.38955 145 ft 32 kts 329°
2026-05-04 11:28 35.74903 140.38667 152 ft 99 kts 329°
2026-05-04 11:28 35.75686 140.38104 147 ft 159 kts 329°
2026-05-04 11:28 35.76753 140.37352 417 ft 181 kts 330°
2026-05-04 11:28 35.77827 140.36545 986 ft 185 kts 329°
2026-05-04 11:29 35.78935 140.35738 1561 ft 183 kts 330°
2026-05-04 11:29 35.80061 140.34933 1980 ft 195 kts 330°
2026-05-04 11:29 35.81298 140.34049 2175 ft 217 kts 330°
2026-05-04 11:29 35.82679 140.33055 2368 ft 241 kts 330°
2026-05-04 11:31 35.93038 140.25528 7055 ft 259 kts 326°
2026-05-04 11:33 36.04009 140.28198 7044 ft 302 kts 67°
2026-05-04 11:33 36.04292 140.30780 7397 ft 306 kts 89°
2026-05-04 11:33 36.04281 140.33430 8006 ft 310 kts 89°
2026-05-04 11:34 36.04302 140.36098 8720 ft 312 kts 89°
2026-05-04 11:34 36.04324 140.38770 9415 ft 314 kts 90°
2026-05-04 11:34 36.04342 140.41477 10017 ft 316 kts 92°
2026-05-04 11:34 36.03990 140.44158 10301 ft 321 kts 119°
2026-05-04 11:35 36.02847 140.46555 10460 ft 332 kts 129°
2026-05-04 11:35 36.01555 140.49040 10640 ft 356 kts 127°
2026-05-04 11:35 36.00214 140.51735 10826 ft 379 kts 126°
2026-05-04 11:35 35.98756 140.54535 11098 ft 393 kts 133°
2026-05-04 11:36 35.96933 140.57075 11633 ft 398 kts 141°
2026-05-04 11:36 35.94946 140.59488 12407 ft 403 kts 143°
2026-05-04 11:36 35.92950 140.61948 13244 ft 409 kts 142°
2026-05-04 11:36 35.90961 140.64504 13952 ft 416 kts 142°
2026-05-04 11:37 35.88957 140.67096 14651 ft 415 kts 146°
2026-05-04 11:37 35.86717 140.69222 15251 ft 401 kts 160°
2026-05-04 11:37 35.84271 140.70849 15978 ft 401 kts 163°
2026-05-04 11:37 35.81804 140.72486 16750 ft 404 kts 162°
2026-05-04 11:38 35.79375 140.74161 17490 ft 408 kts 162°
2026-05-04 11:38 35.76871 140.75943 18177 ft 412 kts 161°
2026-05-04 11:38 35.74416 140.77712 18746 ft 416 kts 161°
2026-05-04 11:38 35.71910 140.79527 19333 ft 421 kts 160°
2026-05-04 11:39 35.69524 140.81786 19851 ft 448 kts 146°
2026-05-04 11:39 35.67412 140.84682 20331 ft 460 kts 142°
2026-05-04 11:40 35.54405 141.02815 23312 ft 482 kts 145°
2026-05-04 11:41 35.52150 141.05875 23725 ft 485 kts 145°
2026-05-04 11:41 35.50058 141.09191 24018 ft 508 kts 131°
2026-05-04 11:41 35.48702 141.13336 24327 ft 543 kts 111°
2026-05-04 11:41 35.48243 141.17992 24717 ft 554 kts 102°
2026-05-04 11:42 35.47998 141.22732 25070 ft 559 kts 101°
2026-05-04 11:42 35.47758 141.27502 25449 ft 561 kts 102°
2026-05-04 11:42 35.47483 141.32279 25838 ft 562 kts 102°
2026-05-04 11:42 35.47165 141.37053 26304 ft 562 kts 103°
2026-05-04 11:43 35.46814 141.41829 26779 ft 562 kts 103°
2026-05-04 11:43 35.46444 141.46600 27201 ft 564 kts 103°
2026-05-04 11:43 35.46065 141.51398 27543 ft 566 kts 103°
2026-05-04 11:43 35.45685 141.56217 27903 ft 569 kts 103°
2026-05-04 11:44 35.45308 141.61054 28260 ft 571 kts 103°
2026-05-04 11:44 35.44932 141.65913 28608 ft 573 kts 103°
2026-05-04 11:44 35.44553 141.70789 28946 ft 575 kts 103°
2026-05-04 11:44 35.44175 141.75668 29267 ft 576 kts 103°
2026-05-04 11:45 35.43944 141.80521 29751 ft 578 kts 99°
2026-05-04 11:45 35.43899 141.85444 30235 ft 577 kts 97°
2026-05-04 11:45 35.43941 141.90355 30703 ft 575 kts 96°
2026-05-04 11:45 35.43995 141.95248 31124 ft 573 kts 97°
2026-05-04 11:46 35.44023 142.00123 31494 ft 571 kts 97°
2026-05-04 11:46 35.44017 142.04990 31869 ft 569 kts 98°
2026-05-04 11:46 35.43984 142.09830 32272 ft 567 kts 98°
2026-05-04 11:46 35.43937 142.14655 32673 ft 565 kts 98°
2026-05-04 11:47 35.43884 142.19472 33041 ft 564 kts 99°
2026-05-04 11:47 35.43831 142.24278 33371 ft 564 kts 99°
2026-05-04 11:47 35.43779 142.29085 33691 ft 563 kts 98°
2026-05-04 11:47 35.43730 142.33874 34047 ft 561 kts 98°
2026-05-04 11:48 35.43680 142.38646 34329 ft 560 kts 98°
2026-05-04 11:48 35.43627 142.43425 34541 ft 561 kts 98°
2026-05-04 11:48 35.43572 142.48214 34683 ft 564 kts 98°
2026-05-04 11:49 35.43457 142.57856 34770 ft 564 kts 98°
2026-05-04 11:49 35.43360 142.65818 34753 ft 559 kts 98°
2026-05-04 11:50 35.43235 142.75318 34758 ft 556 kts 98°
2026-05-04 11:50 35.43078 142.86327 34759 ft 554 kts 98°
2026-05-04 11:51 35.42959 142.94229 34760 ft 553 kts 98°
2026-05-04 11:51 35.42811 143.03664 34754 ft 553 kts 98°
2026-05-04 11:52 35.42656 143.13088 34769 ft 553 kts 98°
2026-05-04 11:52 35.42495 143.22525 34765 ft 554 kts 98°
2026-05-04 11:53 35.42890 143.32016 34759 ft 565 kts 85°
2026-05-04 11:53 35.44899 143.41335 34747 ft 575 kts 71°
2026-05-04 11:55 35.57580 143.77393 34760 ft 574 kts 70°
2026-05-04 11:56 35.60674 143.86434 34766 ft 574 kts 70°
2026-05-04 11:56 35.63764 143.95471 34767 ft 573 kts 70°
2026-05-04 11:57 35.66848 144.04503 34761 ft 573 kts 70°
2026-05-04 11:57 35.69925 144.13536 34756 ft 572 kts 70°
2026-05-04 11:58 35.72986 144.22559 34762 ft 571 kts 70°
2026-05-04 11:58 35.76043 144.31593 34763 ft 571 kts 70°
2026-05-04 11:59 35.79089 144.40617 34766 ft 571 kts 70°
2026-05-04 11:59 35.82129 144.49654 34764 ft 571 kts 70°
2026-05-04 12:00 35.85158 144.58687 34809 ft 571 kts 70°
2026-05-04 12:00 35.88184 144.67735 34764 ft 571 kts 70°
2026-05-04 12:01 35.91201 144.76786 34769 ft 570 kts 70°
2026-05-04 12:02 36.01704 145.08505 34764 ft 570 kts 70°
2026-05-04 12:03 36.04684 145.17567 34759 ft 569 kts 70°
2026-05-04 12:03 36.07657 145.26638 34738 ft 569 kts 70°
2026-05-04 12:04 36.10619 145.35701 34769 ft 569 kts 70°
2026-05-04 12:04 36.13570 145.44772 34746 ft 568 kts 71°
2026-05-04 12:05 36.15888 145.54075 34765 ft 564 kts 79°
2026-05-04 12:05 36.17779 145.63427 34742 ft 564 kts 79°
2026-05-04 12:06 36.19677 145.72848 34747 ft 564 kts 79°
2026-05-04 12:06 36.21614 145.82267 34758 ft 564 kts 79°
2026-05-04 12:07 36.23563 145.91671 34757 ft 563 kts 79°
2026-05-04 12:07 36.25502 146.01065 34750 ft 562 kts 79°
2026-05-04 12:08 36.27425 146.10439 34757 ft 561 kts 79°
2026-05-04 12:08 36.29335 146.19807 34750 ft 560 kts 80°
2026-05-04 12:09 36.31235 146.29165 34746 ft 559 kts 80°
2026-05-04 12:09 36.33125 146.38506 34748 ft 558 kts 80°
2026-05-04 12:10 36.35004 146.47840 34747 ft 558 kts 80°
2026-05-04 12:10 36.36874 146.57169 34753 ft 557 kts 80°
2026-05-04 12:11 36.38736 146.66499 34749 ft 557 kts 80°
2026-05-04 12:11 36.40592 146.75836 34751 ft 557 kts 80°
2026-05-04 12:12 36.42441 146.85183 34742 ft 557 kts 81°
2026-05-04 12:12 36.44270 146.94464 34753 ft 557 kts 81°
2026-05-04 12:14 36.51548 147.31818 34750 ft 555 kts 81°
2026-05-04 12:15 36.53344 147.41141 34750 ft 554 kts 81°
2026-05-04 12:15 36.55129 147.50449 34756 ft 553 kts 81°
2026-05-04 12:16 36.56906 147.59758 34758 ft 553 kts 81°
2026-05-04 12:16 36.58673 147.69056 34756 ft 552 kts 81°
2026-05-04 12:17 36.60433 147.78356 34760 ft 552 kts 81°
2026-05-04 12:17 36.62182 147.87645 34756 ft 551 kts 81°
2026-05-04 12:18 36.63922 147.96929 34757 ft 550 kts 81°
2026-05-04 12:18 36.65653 148.06204 34762 ft 549 kts 81°
2026-05-04 12:19 36.67374 148.15469 34765 ft 549 kts 81°
2026-05-04 12:19 36.69085 148.24724 34760 ft 548 kts 81°
2026-05-04 12:20 36.70789 148.33979 34764 ft 548 kts 81°
2026-05-04 12:20 36.72483 148.43230 34764 ft 547 kts 81°
2026-05-04 12:21 36.74170 148.52485 34762 ft 548 kts 81°
2026-05-04 12:21 36.75851 148.61749 34760 ft 548 kts 81°
2026-05-04 12:22 36.77527 148.71028 34760 ft 549 kts 81°
2026-05-04 12:22 36.79198 148.80325 34774 ft 549 kts 81°
2026-05-04 12:23 36.80863 148.89630 34760 ft 549 kts 81°
2026-05-04 12:23 36.82518 148.98926 34767 ft 548 kts 81°
2026-05-04 12:24 36.84165 149.08220 34761 ft 548 kts 81°
2026-05-04 12:24 36.85802 149.17500 34762 ft 547 kts 81°
2026-05-04 12:25 36.87430 149.26776 34765 ft 547 kts 81°
2026-05-04 12:25 36.89049 149.36053 34760 ft 546 kts 81°
2026-05-04 12:26 36.90662 149.45331 34773 ft 546 kts 81°
2026-05-04 12:26 36.92266 149.54608 34778 ft 546 kts 81°
2026-05-04 12:27 36.93852 149.63826 34765 ft 547 kts 81°
2026-05-04 12:27 36.95443 149.73123 34783 ft 548 kts 81°
2026-05-04 12:28 36.97033 149.82457 34781 ft 549 kts 81°
2026-05-04 12:28 36.98620 149.91813 34775 ft 551 kts 81°
2026-05-04 12:29 37.00471 150.01137 34777 ft 555 kts 73°
2026-05-04 12:29 37.03434 150.10062 34789 ft 557 kts 66°
2026-05-04 12:30 37.06655 150.18887 34779 ft 557 kts 66°
2026-05-04 12:30 37.09840 150.27735 34781 ft 557 kts 67°
2026-05-04 12:31 37.12973 150.36597 34781 ft 556 kts 68°
2026-05-04 12:31 37.16081 150.45460 34783 ft 555 kts 68°
2026-05-04 12:32 37.20720 150.58728 34784 ft 553 kts 68°
2026-05-04 12:33 37.23801 150.67559 34787 ft 552 kts 68°
2026-05-04 12:33 37.26869 150.76376 34782 ft 551 kts 68°
2026-05-04 12:34 37.29928 150.85196 34787 ft 550 kts 68°
2026-05-04 12:34 37.32958 150.93957 34785 ft 550 kts 68°
2026-05-04 12:35 37.36002 151.02784 34785 ft 551 kts 68°
2026-05-04 12:35 37.38549 151.10194 34792 ft 551 kts 68°